Regional Weather Roundup
Issued by NWS

Home | Current Version | Previous Version | Text Only | Print | Product List | Glossary Off
Versions: 1 2 3 4 5 6 7 8 9 10 11 12 13 14 15 16 17 18 19 20 21 22 23 24 25 26 27 28 29 30 31 32 33 34 35 36 37 38 39 40 41 42 43 44 45 46 47 48 49 50

000
ASUS43 KMKX 262021
RWRWI

WISCONSIN REGIONAL WEATHER ROUNDUP
NATIONAL WEATHER SERVICE MILWAUKEE/SULLIVAN WI
300 PM CDT SAT MAY 26 2018

NOTE: "FAIR" INDICATES FEW OR NO CLOUDS BELOW 12,000 FEET WITH NO
SIGNIFICANT WEATHER AND/OR OBSTRUCTIONS TO VISIBILITY.

WIZ001-002-006>008-014>016-023>028-262100-
NORTHWEST WISCONSIN

CITY           SKY/WX    TMP DP  RH WIND       PRES   REMARKS
SUPERIOR ARPT  PTSUNNY   74  56  53 NE5       29.64S
ASHLAND        FAIR      67  57  70 NW9       29.66S
HAYWARD        FAIR      91  55  29 W9        29.69F HX  89
SIREN          FAIR      92  49  23 W7          N/A  HX  89
CUMBERLAND     FAIR      86  52  30 SW7       29.71F HX  84
RICE LAKE      FAIR      91  54  28 SW10      29.71F HX  88
CHETEK         NOT AVBL
LADYSMITH      FAIR      88  60  38 W7        29.72S HX  87
EAU CLAIRE     FAIR      92  60  34 W12       29.69F HX  91
MENOMONIE      FAIR      90  60  36 SW9       29.70S HX  89
NEW RICHMOND   FAIR      90  52  27 CALM      29.71S HX  87
OSCEOLA        FAIR      92  54  27 SW7       29.72F HX  90
$$

WIZ003>005-009-010-017-018-262100-
NORTH CENTRAL WISCONSIN

CITY           SKY/WX    TMP DP  RH WIND       PRES   REMARKS
MANITOWISH WTR FAIR      88  55  32 W8G18     29.70S HX  86
ARBOR VITAE    FAIR      92  54  27 W14G22    29.70S HX  89
WOODRUFF       FAIR      92  54  27 W14G22    29.70S HX  89
RHINELANDER    FAIR      90  57  32 SW13      29.71F HX  88
EAGLE RIVER    FAIR      89  49  25 SW14G25   29.69F HX  86
LAND O LAKES   FAIR      90  48  24 W9G17     29.70F HX  86
PHILLIPS       FAIR      86  57  36 W5        29.70F HX  85
TOMAHAWK       FAIR      86  55  35 SW7       29.71F HX  84
MEDFORD        FAIR      88  57  35 SW9G16    29.73S HX  87
MERRILL        FAIR      90  59  34 SW9G23    29.71F HX  89
$$

WIZ029-030-035-036-043>047-262100-
CENTRAL WISCONSIN

CITY           SKY/WX    TMP DP  RH WIND       PRES   REMARKS
WAUSAU         NOT AVBL
MOSINEE        MOSUNNY   88  57  35 SW14G20   29.74F HX  86
MARSHFIELD     FAIR      91  56  30 W9        29.72F HX  89
STEVENS POINT  FAIR      89  55  32 W8G16     29.73F HX  87
WAUPACA        FAIR      93  55  27 S9        29.72F HX  91
WAUTOMA        FAIR      90  58  33 W9        29.72  HX  89
WISC RAPIDS    FAIR      91  59  33 SW10      29.73F HX  90
CAMP DOUGLAS   FAIR      89  61  38 W12       29.73F HX  89
$$

WIZ011>013-019>022-031-037>040-048>050-262100-
NORTHEAST WISCONSIN

CITY           SKY/WX    TMP DP  RH WIND       PRES   REMARKS
ANTIGO         FAIR      87  58  36 SW10G17   29.73F HX  86
SHAWANO        FAIR      91  58  32 SW8       29.69F HX  90
OCONTO         FAIR      87  62  43 S9        29.68F HX  87
STURGEON BAY   FAIR      79  63  57 SE10      29.72F HX  80
GREEN BAY      FAIR      90  60  36 SW13G18   29.71F HAZE    HX  89
MANITOWOC      NOT AVBL
APPLETON       NOT AVBL
CLINTONVILLE   FAIR      91  55  29 SW12G17   29.71S HX  89
OSHKOSH        FAIR      88  60  38 SW8       29.73F HX  87
$$

WIZ032>034-041-042-053>061-262100-
SOUTHWEST WISCONSIN

CITY           SKY/WX    TMP DP  RH WIND       PRES   REMARKS
LA CROSSE      FAIR      90  67  46 S10       29.72F HX  93
SPARTA         FAIR      90  59  35 W8        29.74F HX  89
VIROQUA        FAIR      88  63  42 SW9       29.77F HX  89
BOSCOBEL       FAIR      90  67  46 SW9       29.75F HX  93
PRAIRIE DU CHI FAIR      87  65  48 SE5       29.74F HX  89
PLATTEVILLE    FAIR      86  67  52 SW6       29.78F HX  88
$$

WIZ056-057-062-063-064-067-068-262100-
SOUTH CENTRAL WISCONSIN

CITY           SKY/WX    TMP DP  RH WIND       PRES   REMARKS
REEDSBURG      FAIR      89  63  42 SW9       29.74F HX  89
BARABOO/DELLS  FAIR      90  54  29 W8        29.75F HX  87
LONE ROCK      FAIR      90  66  45 W6        29.74F HX  92
MINERAL POINT  FAIR      88  63  42 S3        29.78F HX  88
MADISON        FAIR      87  61  41 VRB7      29.74F HX  87
MIDDLETON      FAIR      90  60  35 W10G17    29.76S HX  89
WATERTOWN      FAIR      87  63  44 S6        29.75F HX  87
MONROE         FAIR      88  55  33 SW12      29.78S HX  86
JANESVILLE     SUNNY     90  59  35 W8        29.76F HX  89
$$

WIZ051-052-058>065-066-070>072-262100-
SOUTHEAST WISCONSIN

CITY           SKY/WX    TMP DP  RH WIND       PRES   REMARKS
MILWAUKEE      FAIR      82  64  54 E10       29.75F HX  83
WAUKESHA       SUNNY     84  61  45 CALM      29.77F HX  84
MILWAUKEE/TIMM MOSUNNY   86  55  35 S6        29.76F HX  84
RACINE         FAIR      82  61  48 S9        29.78S HX  83
BURLINGTON     FAIR      88  60  38 SW6       29.76S HX  87
KENOSHA        FAIR      84  63  49 E12       29.76F HX  85
FOND DU LAC    FAIR      88  59  37 SW6       29.74S HX  87
SHEBOYGAN      FAIR      83  63  50 SE10      29.74S HX  84
WEST BEND      FAIR      86  59  39 W8        29.75S HX  85
JUNEAU         FAIR      85  60  42 S3        29.76F HX  85
$$

LSZ147-162-262100-
LAKE SUPERIOR

STATION/POSITION TIME  TEMP    WIND        PRES    WAVE
                       AIR SEA DIR/SP/G            HT/PER
                 (UTC) (F)     (DEG/KT/KT) (MB)    (FT/S)
W MID LAKE BUOY  1950   39 37  110/  6/  8 1004.9F   1
DEVILS ISLAND    2000   53      90/ 10/ 11 1004.4F
SAXON HARBOR     1940          320/  3/  6 1004.1F
$$

LMZ867-665-643>646-262100-
LAKE MICHIGAN

STATION/POSITION TIME  TEMP    WIND        PRES    WAVE
                       AIR SEA DIR/SP/G            HT/PER
                 (UTC) (F)     (DEG/KT/KT) (MB)    (FT/S)
N MID LAKE BUOY  2000          100/  4/  6   N/A
NORTHPORT PIER   1940   57     150/  6/  8 1006.4F
KEWAUNEE LAKESHO 2000          160/  9/ 10 1006.4
SHEBOYGAN LAKESH 2000   58     170/ 16/ 17 1006.9R
PORT WASHINGTON  1930   65     170/  6/ 10 1008.5F
ATWATER BUOY     1937   59 53  170/  8/ 10 1007.9F   1/21
MILWAUKEE LAKESH 2000   51     140/ 11/ 12   N/A
S MID LAKE BUOY  1950   51 40  180/  6/  6 1008.7F   0
KENOSHA   LAKESH 2000   65                 1008.1
$$

TC  - TEMPERATURE IN CELSIUS
VSB - VISIBILITY IN STATUTE MILES
WCI - WIND CHILL INDEX
HX  - HEAT INDEX





USA.gov is the U.S. government's official web portal to all federal, state and local government web resources and services.